FW0403 Weather Reports


Display with metric or nautical units.
time (UTC)temp
F
wind
direction
speed
MPH
gust
MPH
rain 1hr
in
rain 24hr
in
rain mn
in
humidity
%
barometer
mb
20260901101349 84 281 3.0 10.0 0.00 0.03 0.00 79 1013.0
20260901100827 84 298 3.0 10.0 0.00 0.03 0.00 78 1013.1
20260901100322 84 315 3.0 10.0 0.00 0.03 0.00 79 1013.0
20260901095801 84 296 3.0 9.0 0.00 0.03 0.00 78 1013.0
20260901094628 85 297 3.0 9.0 0.00 0.03 0.00 77 1013.1
20260901094132 85 308 3.0 9.0 0.00 0.03 0.00 77 1013.2
20260901093636 85 292 1.0 7.0 0.00 0.03 0.00 77 1013.2
20260901093119 85 72 0.0 0.0 0.00 0.03 0.00 76 1013.2
20260901092609 85 72 0.0 0.0 0.00 0.03 0.00 76 1013.2
20260901090748 86 92 1.0 2.0 0.00 0.03 0.00 75 1013.3
20260901090251 86 92 0.0 2.0 0.00 0.03 0.00 75 1013.3
20260901085758 86 92 0.0 2.0 0.00 0.03 0.00 74 1013.4
20260901085248 86 92 0.0 0.0 0.00 0.03 0.00 74 1013.5
20260901084746 86 92 0.0 0.0 0.00 0.03 0.00 73 1013.5
20260901084248 86 92 0.0 0.0 0.00 0.03 0.00 73 1013.5
20260901083125 87 92 0.0 0.0 0.00 0.03 0.00 72 1013.5
20260901082603 87 92 0.0 0.0 0.00 0.03 0.00 72 1013.5
20260901082049 87 92 0.0 0.0 0.00 0.03 0.00 71 1013.5
20260901081535 87 92 0.0 0.0 0.00 0.03 0.00 72 1013.4
20260901081030 87 92 1.0 0.0 0.00 0.03 0.00 72 1013.3
20260901080518 87 92 2.0 8.0 0.00 0.03 0.00 72 1013.2
20260901075335 87 80 3.0 8.0 0.00 0.03 0.00 72 1013.3
20260901074834 87 114 3.0 8.0 0.00 0.03 0.00 72 1013.3
20260901074323 87 98 3.0 8.0 0.00 0.03 0.00 72 1013.3
20260901073815 87 98 4.0 8.0 0.00 0.03 0.00 72 1013.4
20260901073258 87 100 5.0 10.0 0.00 0.03 0.00 72 1013.4
20260901072743 87 105 4.0 10.0 0.00 0.03 0.00 73 1013.4
20260901072244 88 87 5.0 10.0 0.00 0.03 0.00 73 1013.4
20260901071727 88 73 5.0 10.0 0.00 0.03 0.00 73 1013.5
20260901071205 88 111 5.0 9.0 0.00 0.03 0.00 73 1013.5
20260901070644 88 103 5.0 11.0 0.00 0.03 0.00 73 1013.7
20260901070149 88 94 5.0 11.0 0.00 0.03 0.00 72 1013.8
20260901065034 88 103 6.0 11.0 0.00 0.03 0.00 73 1013.7
20260901064527 88 96 5.0 9.0 0.00 0.03 0.00 73 1013.7
20260901064005 88 69 5.0 9.0 0.00 0.03 0.00 72 1013.6
20260901063512 88 81 5.0 9.0 0.00 0.03 0.00 73 1013.7
20260901063013 88 89 5.0 9.0 0.00 0.03 0.00 73 1013.7
20260901062453 88 71 4.0 7.0 0.00 0.03 0.00 73 1013.7
20260901061333 88 94 4.0 10.0 0.00 0.03 0.00 72 1013.6
20260901060838 88 85 5.0 10.0 0.00 0.03 0.00 72 1013.6
20260901060340 88 67 6.0 10.0 0.00 0.03 0.00 72 1013.6
20260901055843 88 100 6.0 10.0 0.00 0.03 0.00 72 1013.8
20260901055324 89 68 6.0 10.0 0.00 0.03 0.00 72 1013.8
20260901054810 89 71 7.0 10.0 0.00 0.03 0.00 72 1013.9
20260901054300 89 73 6.0 10.0 0.00 0.03 0.00 72 1013.8
20260901053752 89 84 6.0 10.0 0.00 0.03 0.00 71 1013.9
20260901053234 88 83 6.0 11.0 0.00 0.03 0.00 71 1013.9
20260901052727 89 91 6.0 11.0 0.00 0.03 0.00 71 1014.0
20260901051545 89 100 6.0 11.0 0.00 0.03 0.00 71 1013.9
20260901051048 89 90 5.0 10.0 0.00 0.03 0.00 71 1013.9
20260901045909 89 81 6.0 11.0 0.00 0.03 0.03 71 1013.9
20260901045348 89 101 6.0 11.0 0.00 0.03 0.03 71 1013.9
20260901044842 89 95 6.0 11.0 0.00 0.03 0.03 70 1013.7
20260901044326 89 95 6.0 10.0 0.00 0.03 0.03 70 1013.5
20260901043819 88 73 6.0 10.0 0.00 0.03 0.03 70 1013.6
20260901043309 89 70 6.0 10.0 0.00 0.03 0.03 70 1013.5
20260901042801 89 88 5.0 10.0 0.00 0.03 0.03 71 1013.6
20260901042305 89 69 5.0 10.0 0.00 0.03 0.03 70 1013.7
20260901041748 88 104 6.0 10.0 0.00 0.03 0.03 70 1013.8
20260901041227 88 80 5.0 10.0 0.00 0.03 0.03 70 1013.7
20260901035549 88 110 4.0 8.0 0.00 0.03 0.03 70 1013.7
20260901035030 88 96 4.0 8.0 0.00 0.03 0.03 69 1013.7
20260901034526 88 98 3.0 8.0 0.00 0.03 0.03 70 1013.8
20260901033405 88 95 4.0 8.0 0.00 0.03 0.03 70 1013.8
20260901032854 88 102 4.0 10.0 0.00 0.03 0.03 70 1013.8
20260901032347 88 114 4.0 10.0 0.00 0.03 0.03 70 1013.8
20260901031843 88 74 4.0 10.0 0.00 0.03 0.03 71 1013.7
20260901031327 88 103 3.0 10.0 0.00 0.03 0.03 70 1013.7
20260901030150 88 97 2.0 7.0 0.00 0.03 0.03 70 1013.5
20260901025629 88 91 2.0 7.0 0.00 0.03 0.03 70 1013.4
20260901025113 88 86 3.0 7.0 0.00 0.03 0.03 70 1013.3
20260901024604 88 127 2.0 6.0 0.00 0.03 0.03 70 1013.3
20260901024052 88 90 1.0 4.0 0.00 0.03 0.03 69 1013.2
20260901023547 88 150 1.0 4.0 0.00 0.03 0.03 69 1013.1
20260901023048 88 103 1.0 4.0 0.00 0.03 0.03 69 1013.1
20260901021924 88 167 1.0 3.0 0.00 0.03 0.03 68 1012.9
20260901020741 88 183 2.0 4.0 0.00 0.03 0.03 68 1012.7
20260901020220 88 175 2.0 4.0 0.00 0.03 0.03 69 1012.7
20260901015702 88 185 2.0 4.0 0.00 0.03 0.03 69 1012.7
20260901014523 88 191 3.0 5.0 0.00 0.03 0.03 70 1012.6
20260901014007 88 180 3.0 5.0 0.00 0.03 0.03 69 1012.5
20260901013446 88 140 2.0 5.0 0.00 0.03 0.03 70 1012.5
20260901012926 88 184 3.0 5.0 0.00 0.03 0.03 69 1012.5
20260901012415 88 181 3.0 5.0 0.00 0.03 0.03 69 1012.5
20260901011921 88 182 3.0 5.0 0.00 0.03 0.03 69 1012.4
20260901011413 88 178 3.0 5.0 0.00 0.03 0.03 69 1012.5
20260901010901 88 191 3.0 6.0 0.00 0.03 0.03 69 1012.7
20260901010348 88 177 3.0 6.0 0.00 0.03 0.03 69 1012.7
20260901004541 89 180 4.0 8.0 0.00 0.03 0.03 69 1012.7
20260901003353 89 182 3.0 6.0 0.00 0.03 0.03 69 1012.7
20260901002236 89 184 3.0 6.0 0.00 0.03 0.03 67 1012.8
20260901001740 89 179 2.0 6.0 0.00 0.03 0.03 68 1012.7
20260901000558 89 167 2.0 5.0 0.00 0.03 0.03 67 1012.8
20260901000044 90 145 2.0 5.0 0.00 0.03 0.03 67 1012.8
20260831234312 90 183 2.0 5.0 0.00 0.03 0.03 68 1013.0
20260831233140 90 182 2.0 5.0 0.00 0.03 0.03 68 1012.8
20260831232647 90 160 2.0 5.0 0.00 0.03 0.03 68 1012.9
20260831232129 90 157 2.0 5.0 0.00 0.03 0.03 68 1012.8
20260831230952 90 182 2.0 4.0 0.00 0.03 0.03 67 1013.0
20260831230441 90 144 2.0 5.0 0.00 0.03 0.03 68 1013.1
20260831225947 90 150 3.0 5.0 0.00 0.03 0.03 68 1013.0
20260831225447 91 178 3.0 5.0 0.00 0.03 0.03 67 1013.0
20260831224311 91 113 2.0 4.0 0.00 0.03 0.03 67 1013.2
20260831223754 92 168 1.0 3.0 0.00 0.03 0.03 68 1013.1
20260831223256 91 121 1.0 5.0 0.00 0.03 0.03 67 1013.1
20260831222122 91 172 1.0 6.0 0.00 0.03 0.03 69 1013.0
20260831221606 91 176 1.0 6.0 0.00 0.03 0.03 68 1013.1
20260831215813 91 197 1.0 5.0 0.00 0.03 0.03 69 1013.2
20260831215250 91 119 2.0 6.0 0.00 0.03 0.03 69 1013.3
20260831214747 90 95 3.0 6.0 0.00 0.03 0.03 69 1013.4
20260831214239 90 100 4.0 6.0 0.00 0.03 0.03 69 1013.6
20260831213124 91 113 3.0 6.0 0.00 0.03 0.03 68 1013.7
20260831212609 91 104 3.0 6.0 0.00 0.03 0.03 67 1013.7
20260831212059 91 108 3.0 6.0 0.00 0.03 0.03 68 1013.8
20260831210939 90 96 4.0 6.0 0.00 0.03 0.03 67 1014.1
20260831210438 91 102 4.0 6.0 0.00 0.03 0.03 66 1014.0
20260831205944 91 78 4.0 9.0 0.00 0.03 0.03 65 1014.1
20260831204746 91 84 4.0 9.0 0.00 0.03 0.03 66 1014.1
20260831204247 90 87 4.0 9.0 0.00 0.03 0.03 66 1014.2
20260831203737 90 72 4.0 10.0 0.00 0.03 0.03 67 1014.2
20260831203214 90 80 3.0 10.0 0.00 0.03 0.03 67 1014.3
20260831201426 89 48 7.0 12.0 0.00 0.03 0.03 68 1014.4
20260831200931 89 62 8.0 12.0 0.00 0.03 0.03 67 1014.5
20260831195812 91 58 6.0 11.0 0.00 0.03 0.03 68 1014.6
20260831195315 91 59 5.0 11.0 0.00 0.03 0.03 68 1014.6
20260831194816 90 57 5.0 13.0 0.00 0.03 0.03 67 1014.6
20260831193657 90 67 8.0 13.0 0.00 0.03 0.03 69 1014.7
20260831193154 90 84 8.0 13.0 0.00 0.03 0.03 69 1014.7
20260831192653 90 103 9.0 12.0 0.00 0.03 0.03 70 1014.7
20260831192134 90 86 9.0 12.0 0.00 0.03 0.03 69 1014.8
20260831191640 91 71 8.0 12.0 0.00 0.03 0.03 69 1014.9
20260831191139 91 109 7.0 11.0 0.00 0.03 0.03 68 1014.9
20260831190618 91 123 7.0 11.0 0.00 0.03 0.03 68 1015.0
20260831185558 92 70 5.0 10.0 0.00 0.03 0.03 66 1015.0
20260831185039 92 70 4.0 8.0 0.00 0.03 0.03 66 1015.1
20260831184541 92 70 4.0 7.0 0.00 0.03 0.03 66 1015.1
20260831184041 92 70 4.0 8.0 0.00 0.03 0.03 66 1015.1
20260831183539 92 70 3.0 8.0 0.00 0.03 0.03 68 1015.2
20260831183028 91 70 4.0 9.0 0.00 0.03 0.03 67 1015.3
20260831182511 90 70 3.0 9.0 0.00 0.03 0.03 67 1015.3
20260831182011 90 70 3.0 10.0 0.00 0.03 0.03 66 1015.3
20260831181509 90 70 4.0 10.0 0.00 0.03 0.03 67 1015.5
20260831181010 90 69 6.0 10.0 0.00 0.03 0.03 67 1015.6
20260831180448 90 76 7.0 10.0 0.00 0.03 0.03 69 1015.7
20260831175935 91 98 8.0 12.0 0.00 0.03 0.03 69 1015.7
20260831175427 91 75 8.0 12.0 0.00 0.03 0.03 68 1015.7
20260831174912 91 91 8.0 12.0 0.00 0.03 0.03 69 1015.7
20260831174403 91 81 9.0 12.0 0.00 0.03 0.03 69 1015.5
20260831173851 90 82 9.0 12.0 0.00 0.03 0.03 70 1015.7
20260831173358 90 99 8.0 12.0 0.00 0.03 0.03 70 1015.8
20260831172842 90 89 8.0 12.0 0.00 0.03 0.03 70 1015.7
20260831172322 90 78 8.0 11.0 0.00 0.03 0.03 70 1015.8
20260831171818 90 83 7.0 11.0 0.00 0.03 0.03 70 1015.9
20260831171318 90 62 5.0 10.0 0.00 0.03 0.03 71 1015.8
20260831170818 89 53 4.0 10.0 0.00 0.03 0.03 72 1015.8
20260831170324 88 25 5.0 10.0 0.00 0.03 0.03 72 1015.9
20260831165831 87 19 4.0 10.0 0.00 0.03 0.03 73 1015.9
20260831165328 87 53 3.0 8.0 0.00 0.03 0.03 76 1016.0
20260831164831 87 337 2.0 8.0 0.04 0.03 0.03 77 1015.9
20260831164325 87 357 1.0 6.0 0.05 0.03 0.03 78 1016.0
20260831163828 86 299 2.0 8.0 0.09 0.03 0.03 77 1015.8
20260831163311 86 357 4.0 8.0 0.28 0.03 0.03 76 1015.8
20260831162816 86 38 5.0 11.0 0.00 0.01 0.01 74 1015.9
20260831162313 87 16 5.0 11.0 0.00 0.00 0.00 73 1015.9
20260831161815 88 42 7.0 12.0 0.00 0.00 0.00 72 1015.8
20260831161318 89 30 8.0 12.0 0.00 0.00 0.00 72 1015.9
20260831160816 89 17 7.0 12.0 0.00 0.00 0.00 70 1015.7
20260831155649 89 340 7.0 12.0 0.00 0.00 0.00 66 1015.7
20260831154523 89 340 4.0 9.0 0.00 0.00 0.00 70 1015.7
20260831154028 90 308 4.0 9.0 0.00 0.00 0.00 68 1015.6
20260831153528 90 7 3.0 9.0 0.00 0.00 0.00 68 1015.6
20260831153021 90 318 3.0 9.0 0.00 0.00 0.00 69 1015.5
20260831152505 90 336 3.0 9.0 0.00 0.00 0.00 69 1015.5
20260831152011 89 273 3.0 9.0 0.00 0.00 0.00 69 1015.5
20260831151457 89 357 4.0 8.0 0.00 0.00 0.00 70 1015.6
20260831150951 89 17 3.0 8.0 0.00 0.00 0.00 71 1015.7
20260831144540 88 7 3.0 8.0 0.00 0.00 0.00 73 1015.6
20260831143415 88 17 2.0 8.0 0.00 0.00 0.00 72 1015.6
20260831141637 88 352 0.0 3.0 0.00 0.00 0.00 75 1015.5
20260831141126 87 322 1.0 3.0 0.00 0.00 0.00 75 1015.4
20260831140630 87 311 1.0 3.0 0.00 0.00 0.00 76 1015.4
20260831140118 86 286 1.0 3.0 0.00 0.00 0.00 77 1015.4
20260831135607 86 357 1.0 4.0 0.00 0.00 0.00 78 1015.5
20260831135110 86 350 1.0 4.0 0.00 0.00 0.00 78 1015.3
20260831133306 85 357 0.0 3.0 0.00 0.00 0.00 79 1015.1
20260831132744 85 357 0.0 2.0 0.00 0.00 0.00 79 1015.0
20260831132228 85 357 0.0 0.0 0.00 0.00 0.00 79 1015.0
20260831131717 85 357 0.0 2.0 0.00 0.00 0.00 79 1015.0
20260831131215 85 357 0.0 2.0 0.00 0.00 0.00 79 1015.0
20260831130708 85 357 0.0 2.0 0.00 0.00 0.00 79 1014.9
20260831130148 85 357 0.0 2.0 0.00 0.00 0.00 79 1014.7
20260831125640 85 357 0.0 2.0 0.00 0.00 0.00 79 1014.7
20260831125147 85 357 0.0 2.0 0.00 0.00 0.00 79 1014.6
20260831124914 85 357 0.0 3.0 0.00 0.00 0.00 79 1014.5
20260831124403 85 7 0.0 3.0 0.00 0.00 0.00 79 1014.6
20260831123841 85 7 0.0 3.0 0.00 0.00 0.00 79 1014.4
20260831123338 85 347 0.0 0.0 0.00 0.00 0.00 78 1014.3
20260831122819 85 347 0.0 1.0 0.00 0.00 0.00 78 1014.3
20260831122306 85 347 0.0 1.0 0.00 0.00 0.00 78 1014.2
20260831121755 85 347 0.0 0.0 0.00 0.00 0.00 78 1014.2
20260831121301 85 347 0.0 1.0 0.00 0.00 0.00 78 1014.1
20260831120752 85 347 0.0 0.0 0.00 0.00 0.00 77 1014.0
20260831120240 85 318 0.0 1.0 0.00 0.00 0.00 77 1014.0
20260831115735 85 303 0.0 0.0 0.00 0.00 0.00 77 1013.9
20260831115223 85 304 0.0 0.0 0.00 0.00 0.00 77 1013.9
20260831114721 85 306 0.0 1.0 0.00 0.00 0.00 77 1013.7
20260831114228 85 304 0.0 0.0 0.00 0.00 0.00 76 1013.6
20260831113734 85 343 0.0 2.0 0.00 0.00 0.00 76 1013.5
20260831113226 85 287 1.0 2.0 0.00 0.00 0.00 75 1013.4
20260831112722 85 285 0.0 2.0 0.00 0.00 0.00 75 1013.5
20260831112210 85 286 0.0 1.0 0.00 0.00 0.00 75 1013.5
20260831111702 85 286 0.0 0.0 0.00 0.00 0.00 75 1013.6
20260831111201 85 286 0.0 1.0 0.00 0.00 0.00 75 1013.6
20260831110048 85 290 0.0 1.0 0.00 0.00 0.00 74 1013.7
20260831105554 85 275 0.0 0.0 0.00 0.00 0.00 74 1013.7
20260831105054 85 269 0.0 1.0 0.00 0.00 0.00 74 1013.7
20260831104534 86 267 0.0 1.0 0.00 0.00 0.00 74 1013.7
20260831104013 86 293 0.0 0.0 0.00 0.00 0.00 74 1013.5
20260831103458 86 284 0.0 1.0 0.00 0.00 0.00 73 1013.5
20260831103004 86 273 0.0 1.0 0.00 0.00 0.00 73 1013.7
20260831102502 86 270 0.0 0.0 0.00 0.00 0.00 73 1013.7